Regional Weather Roundup
Issued by NWS Jackson, KY

Home | Current Version | Previous Version | Graphics & Text | Print | Product List | Glossary On
Versions: 1 2 3 4 5 6 7 8 9 10 11 12 13 14 15 16 17 18 19 20 21 22 23 24 25 26 27 28 29 30 31 32 33 34 35 36 37 38 39 40 41 42 43 44 45 46 47 48 49 50
000
ASUS43 KJKL 011810
RWRJKL

EAST KENTUCKY HOURLY WEATHER ROUNDUP
NATIONAL WEATHER SERVICE JACKSON KY
200 PM EDT SAT AUG 01 2015

NOTE: "FAIR" INDICATES FEW OR NO CLOUDS BELOW 12,000 FEET WITH
NO SIGNIFICANT WEATHER AND/OR OBSTRUCTIONS TO VISIBILITY.

* THESE REPORTS ARE NOT UNDER NWS QUALITY CONTROL AND MAY NOT
  REPORT WEATHER SUCH AS PRECIPITATION AND FOG.

KYZ079-080-083-085-087-088-110-112-115-119-120-011900
...EASTERN KENTUCKY...

CITY           SKY/WX    TMP DP  RH WIND       PRES   REMARKS
JACKSON        MOSUNNY   83  61  47 VRB6      30.02F
6HR MIN TEMP:  66; 6HR MAX TEMP:  83;

LONDON         MOSUNNY   87  59  38 NW8       30.02F
6HR MIN TEMP:  65; 6HR MAX TEMP:  87;

SOMERSET*      SUNNY     84  59  42 NW7       30.03F
MONTICELLO*    MOSUNNY   87  68  53 W6        30.05F HX  90
6HR MIN TEMP:  66; 6HR MAX TEMP:  88;

WILLIAMSBURG*  MOSUNNY   82  64  54 NW3       30.03F
MIDDLESBORO*   MOSUNNY   85  62  45 N7        30.03F
6HR MIN TEMP:  60; 6HR MAX TEMP:  87;

HAZARD APT*    MOCLDY    84  61  45 W7        30.02F
BLACK MTN*       N/A     72  61  68 N3          N/A
PIKEVILLE APT* PTSUNNY   82  61  47 N3        30.02F
BIG SANDY*     PTCLDY    85  60  42 NW7       30.01F
6HR MIN TEMP:  67; 6HR MAX TEMP:  85;

MOREHEAD APT*  PTCLDY    82  59  44 VRB5      30.03S
$$

KYZ035-036-041-042-044-050-067-078-099-011900
...CENTRAL KENTUCKY...

CITY           SKY/WX    TMP DP  RH WIND       PRES   REMARKS
MT STERLING*   SUNNY     82  59  44 N7        30.02F
FLEMING/MASON* MOSUNNY   82  57  42 NW5       30.01F
DANVILLE*      MOSUNNY   84  61  45 N6        30.03S
RICHMOND*      SUNNY     82  59  44 NW9       30.01F
LEXINGTON      SUNNY     85  60  42 MISG      30.01F
6HR MIN TEMP:  68; 6HR MAX TEMP:  85;

FRANKFORT      SUNNY     83  55  38 W7        30.01F
6HR MIN TEMP:  67; 6HR MAX TEMP:  84;

$$

KYZ091>093-OHZ055-061-077-WVZ005-015-034-035-042-011900
...SOUTHERN OHIO/WEST VIRGINIA...

CITY           SKY/WX    TMP DP  RH WIND       PRES   REMARKS
COVINGTON      MOSUNNY   82  56  40 VRB5      30.01F
COLUMBUS       PTSUNNY   82  54  37 W12       29.97F
DAYTON         MOSUNNY   80  56  43 N12       30.01F
WILMINGTON     MOSUNNY   79  52  38 NW12      30.00F
HUNTINGTON     MOSUNNY   83  53  35 VRB7      29.99F
CHARLESTON     MOSUNNY   83  54  36 NW9       29.99F
PINEVILLE*     MOSUNNY   82  59  44 MISG      30.08S
BECKLEY        MOSUNNY   77  53  43 NW8       30.06F
BLUEFIELD      MOSUNNY   79  54  41 W12       30.09F
$$

VAZ002-007-008-TNZ017-027-036-066-071-011900
...SOUTHWEST VIRGINIA/EAST TENNESSEE...

CITY           SKY/WX    TMP DP  RH WIND       PRES   REMARKS
WISE*          PTSUNNY   81  52  36 W7        30.10F
ABINGDON*      PTSUNNY   81  54  38 NW6       30.06F
BRISTOL        MOSUNNY   85  57  38 W10       30.03F
KNOXVILLE      MOSUNNY   88  59  37 VRB5      30.01F
OAK RIDGE      MOSUNNY   89  64  43 VRB3      30.03F HX  90
CROSSVILLE     MOSUNNY   84  60  44 VRB7      30.08F
NASHVILLE      MOSUNNY   91  65  41 CALM      30.02F HX  93
$$

...KEY TO REMARKS...
VSB - VISIBILITY IN MILES
WCI - WIND CHILL INDEX
HX  - HEAT INDEX

$$



USA.gov is the U.S. government's official web portal to all federal, state and local government web resources and services.